When you browse on this site, cookies collect data to enhance your experience and personalize the content and advertising you see.
Visit our Privacy Policy to learn more. By continuing to use the site, you agree to this use of cookies and data.

Meteo pe oră la Dzielin

Astăzi, 18 Septembrie, Vineri

Timp Temperatura Precipitaţii Vânt Presiune Umiditate
00:00 +7°C° 0 mm 3 m/s 756 mmHg 84%
01:00 +7°C° 0 mm 3 m/s 756 mmHg 86%
02:00 +6°C° 0 mm 4 m/s 756 mmHg 85%
03:00 +6°C° 0 mm 4 m/s 756 mmHg 83%
04:00 +6°C° 0 mm 4 m/s 756 mmHg 82%
05:00 +6°C° 0 mm 4 m/s 756 mmHg 77%
06:00 +7°C° 0 mm 4 m/s 756 mmHg 73%
07:00 +8°C° 0 mm 5 m/s 756 mmHg 67%
08:00 +10°C° 0 mm 5 m/s 756 mmHg 62%
09:00 +13°C° 0 mm 5 m/s 756 mmHg 57%
10:00 +14°C° 0 mm 5 m/s 756 mmHg 53%
11:00 +15°C° 0 mm 5 m/s 756 mmHg 51%
12:00 +17°C° 0 mm 4 m/s 756 mmHg 49%
13:00 +18°C° 0 mm 4 m/s 756 mmHg 46%
14:00 +18°C° 0 mm 4 m/s 756 mmHg 48%
15:00 +18°C° 0 mm 4 m/s 756 mmHg 49%
16:00 +17°C° 0 mm 3 m/s 756 mmHg 50%
17:00 +16°C° 0 mm 3 m/s 756 mmHg 54%
18:00 +13°C° 0 mm 3 m/s 756 mmHg 59%
19:00 +12°C° 0 mm 2 m/s 756 mmHg 64%
20:00 +10°C° 0 mm 2 m/s 756 mmHg 64%
21:00 +11°C° 0 mm 1 m/s 756 mmHg 65%
22:00 +10°C° 0 mm 1 m/s 756 mmHg 65%
23:00 +10°C° 0 mm 1 m/s 756 mmHg 66%

Mâine, 19 Septembrie, Sâmbătă

Timp Temperatura Precipitaţii Vânt Presiune Umiditate
00:00 +9°C° 0 mm 1 m/s 756 mmHg 67%
01:00 +9°C° 0 mm 1 m/s 756 mmHg 67%
02:00 +9°C° 0 mm 1 m/s 756 mmHg 69%
03:00 +8°C° 0 mm 1 m/s 755 mmHg 70%
04:00 +8°C° 0 mm 1 m/s 755 mmHg 71%
05:00 +9°C° 0 mm 1 m/s 755 mmHg 69%
06:00 +10°C° 0 mm 1 m/s 755 mmHg 67%
07:00 +10°C° 0 mm 1 m/s 755 mmHg 65%
08:00 +12°C° 0 mm 1 m/s 755 mmHg 58%
09:00 +14°C° 0 mm 2 m/s 755 mmHg 52%
10:00 +16°C° 0 mm 2 m/s 755 mmHg 45%
11:00 +17°C° 0 mm 2 m/s 755 mmHg 42%
12:00 +17°C° 0 mm 2 m/s 755 mmHg 39%
13:00 +18°C° 0 mm 2 m/s 754 mmHg 35%
14:00 +18°C° 0 mm 2 m/s 754 mmHg 39%
15:00 +18°C° 0 mm 2 m/s 754 mmHg 42%
16:00 +19°C° 0 mm 1 m/s 754 mmHg 46%
17:00 +16°C° 0 mm 1 m/s 753 mmHg 50%
18:00 +14°C° 0 mm 1 m/s 753 mmHg 54%
19:00 +13°C° 0 mm 1 m/s 753 mmHg 57%
20:00 +12°C° 0 mm 1 m/s 753 mmHg 62%
21:00 +12°C° 0 mm 1 m/s 754 mmHg 67%
22:00 +11°C° 0 mm 1 m/s 754 mmHg 72%
23:00 +11°C° 0 mm 1 m/s 754 mmHg 75%

Poimâine, 20 Septembrie, Duminică

Timp Temperatura Precipitaţii Vânt Presiune Umiditate
00:00 +11°C° 0 mm 1 m/s 753 mmHg 77%
01:00 +11°C° 0 mm 1 m/s 753 mmHg 80%
02:00 +10°C° 0 mm 1 m/s 753 mmHg 80%
03:00 +10°C° 0 mm 1 m/s 753 mmHg 80%
04:00 +10°C° 0 mm 1 m/s 753 mmHg 81%
05:00 +10°C° 0 mm 1 m/s 753 mmHg 78%
06:00 +11°C° 0 mm 1 m/s 753 mmHg 74%
07:00 +12°C° 0 mm 2 m/s 753 mmHg 71%
08:00 +13°C° 0 mm 2 m/s 753 mmHg 65%
09:00 +15°C° 0 mm 2 m/s 753 mmHg 58%
10:00 +17°C° 0 mm 2 m/s 753 mmHg 52%
11:00 +18°C° 0 mm 3 m/s 753 mmHg 48%
12:00 +19°C° 0 mm 3 m/s 753 mmHg 43%
13:00 +19°C° 0 mm 3 m/s 753 mmHg 39%
14:00 +19°C° 0 mm 2 m/s 752 mmHg 41%
15:00 +19°C° 0 mm 2 m/s 752 mmHg 43%
16:00 +19°C° 0 mm 2 m/s 751 mmHg 44%
17:00 +17°C° 0 mm 2 m/s 752 mmHg 48%
18:00 +15°C° 0 mm 2 m/s 752 mmHg 52%
19:00 +13°C° 0 mm 1 m/s 752 mmHg 55%
20:00 +12°C° 0 mm 1 m/s 752 mmHg 56%
21:00 +12°C° 0 mm 2 m/s 752 mmHg 58%
22:00 +10°C° 0 mm 2 m/s 752 mmHg 59%
23:00 +11°C° 0 mm 1 m/s 751 mmHg 60%

21 Septembrie, Luni

Timp Temperatura Precipitaţii Vânt Presiune Umiditate
00:00 +10°C° 0 mm 1 m/s 751 mmHg 62%
01:00 +10°C° 0 mm 1 m/s 751 mmHg 63%
02:00 +10°C° 0 mm 1 m/s 751 mmHg 65%
03:00 +9°C° 0 mm 1 m/s 751 mmHg 68%
04:00 +9°C° 0 mm 1 m/s 751 mmHg 70%
05:00 +10°C° 0 mm 1 m/s 751 mmHg 69%
06:00 +9°C° 0 mm 2 m/s 751 mmHg 69%
07:00 +10°C° 0 mm 2 m/s 751 mmHg 68%
08:00 +13°C° 0 mm 2 m/s 751 mmHg 64%
09:00 +16°C° 0 mm 2 m/s 751 mmHg 59%
10:00 +18°C° 0 mm 2 m/s 751 mmHg 55%
11:00 +19°C° 0 mm 2 m/s 751 mmHg 52%
12:00 +20°C° 0 mm 2 m/s 751 mmHg 49%
13:00 +21°C° 0 mm 2 m/s 750 mmHg 45%
14:00 +22°C° 0 mm 1 m/s 750 mmHg 47%
15:00 +22°C° 0 mm 1 m/s 749 mmHg 49%
16:00 +22°C° 0 mm 1 m/s 749 mmHg 51%
17:00 +20°C° 0 mm 1 m/s 749 mmHg 55%
18:00 +18°C° 0 mm 1 m/s 749 mmHg 60%
19:00 +15°C° 0 mm 1 m/s 749 mmHg 65%
20:00 +14°C° 0 mm 1 m/s 749 mmHg 67%
21:00 +14°C° 0 mm 1 m/s 749 mmHg 68%
22:00 +14°C° 0 mm 1 m/s 749 mmHg 70%
23:00 +13°C° 0 mm 1 m/s 749 mmHg 71%

22 Septembrie, Marţi

Timp Temperatura Precipitaţii Vânt Presiune Umiditate
00:00 +13°C° 0 mm 2 m/s 748 mmHg 72%
01:00 +13°C° 0 mm 2 m/s 748 mmHg 73%
02:00 +13°C° 0 mm 2 m/s 748 mmHg 73%
03:00 +13°C° 0 mm 2 m/s 747 mmHg 74%
04:00 +12°C° 0 mm 3 m/s 747 mmHg 74%
05:00 +12°C° 0 mm 3 m/s 747 mmHg 73%
06:00 +13°C° 0 mm 3 m/s 747 mmHg 71%
07:00 +14°C° 0 mm 3 m/s 747 mmHg 70%
08:00 +17°C° 0 mm 3 m/s 747 mmHg 64%
09:00 +19°C° 0 mm 4 m/s 747 mmHg 58%
10:00 +22°C° 0 mm 4 m/s 746 mmHg 52%
11:00 +23°C° 0 mm 5 m/s 746 mmHg 47%
12:00 +24°C° 0 mm 6 m/s 745 mmHg 43%
13:00 +27°C° 0 mm 6 m/s 745 mmHg 39%
14:00 +26°C° 0 mm 5 m/s 744 mmHg 42%
15:00 +26°C° 0 mm 5 m/s 744 mmHg 45%
16:00 +25°C° 0 mm 4 m/s 743 mmHg 48%
17:00 +22°C° 0 mm 4 m/s 743 mmHg 52%
18:00 +21°C° 0 mm 4 m/s 743 mmHg 55%
19:00 +19°C° 0 mm 4 m/s 743 mmHg 59%
20:00 +18°C° 0 mm 4 m/s 743 mmHg 61%
21:00 +18°C° 0 mm 4 m/s 743 mmHg 62%
22:00 +17°C° 0 mm 4 m/s 743 mmHg 63%
23:00 +17°C° 0 mm 4 m/s 742 mmHg 65%

23 Septembrie, Miercuri

Timp Temperatura Precipitaţii Vânt Presiune Umiditate
00:00 +17°C° 0 mm 4 m/s 742 mmHg 66%
01:00 +16°C° 0 mm 3 m/s 742 mmHg 67%
02:00 +16°C° 0 mm 3 m/s 742 mmHg 68%
03:00 +16°C° 0 mm 3 m/s 742 mmHg 69%
04:00 +14°C° 0 mm 3 m/s 742 mmHg 70%
05:00 +16°C° 0 mm 3 m/s 742 mmHg 68%
06:00 +16°C° 0 mm 3 m/s 742 mmHg 67%
07:00 +17°C° 0 mm 3 m/s 741 mmHg 65%
08:00 +18°C° 0 mm 4 m/s 741 mmHg 61%
09:00 +20°C° 0 mm 4 m/s 741 mmHg 58%
10:00 +22°C° 0 mm 4 m/s 741 mmHg 54%
11:00 +23°C° 0 mm 4 m/s 741 mmHg 52%
12:00 +25°C° 0 mm 4 m/s 741 mmHg 51%
13:00 +26°C° 0 mm 4 m/s 741 mmHg 49%
14:00 +26°C° 0 mm 4 m/s 740 mmHg 52%
15:00 +25°C° 0 mm 3 m/s 740 mmHg 55%
16:00 +25°C° 0 mm 3 m/s 740 mmHg 58%
17:00 +22°C° 0.3 mm 3 m/s 740 mmHg 64%
18:00 +21°C° 0.3 mm 3 m/s 740 mmHg 70%
19:00 +20°C° 0.3 mm 3 m/s 740 mmHg 75%
20:00 +19°C° 0.2 mm 3 m/s 740 mmHg 78%
21:00 +18°C° 0.2 mm 3 m/s 740 mmHg 81%
22:00 +17°C° 0.2 mm 3 m/s 740 mmHg 84%
23:00 +17°C° 0 mm 3 m/s 740 mmHg 85%
Arată mai mult